Regional Weather Roundup
Issued by NWS Newport/Morehead, NC

Current Version | Previous Version | Text Only | Print | Product List | Glossary Off
Versions: 1 2 3 4 5 6 7 8 9 10 11 12 13 14 15 16 17 18 19 20 21 22 23 24 25 26 27 28 29 30 31 32 33 34 35 36 37 38 39 40 41 42 43 44 45 46 47 48 49 50
000 ASUS42 KMHX 201113 RWRMHX WEATHER ROUNDUP FOR EASTERN NORTH CAROLINA NATIONAL WEATHER SERVICE NEWPORT/MOREHEAD CITY NC 600 AM EST MON NOV 20 2017 NOTE: "FAIR" INDICATES FEW OR NO CLOUDS BELOW 12,000 FEET WITH NO SIGNIFICANT WEATHER AND/OR OBSTRUCTIONS TO VISIBILITY NCZ015>017-031-032-045>047-102-103-201200- NORTH COAST CITY SKY/WX TMP DP RH WIND PRES REMARKS EDENTON CLEAR 39 32 75 CALM 30.15R ELIZABETH CITY PTCLDY 35 29 78 W8 30.15R KITTY HAWK SUNNY 42 30 62 NW5 30.12R MANTEO CLEAR 44 31 61 NW9 30.14R $$ NCZ045>047-081-094-103-104-201200- CENTRAL COAST CITY SKY/WX TMP DP RH WIND PRES REMARKS FRISCO CLEAR 46 34 62 NW9G16 30.14R $$ NCZ095-097-098-100-101-201200- SOUTHERN COAST CITY SKY/WX TMP DP RH WIND PRES REMARKS BEAUFORT CLEAR 39 31 72 N6 30.17R CEDAR ISLAND NOT AVBL JACKSONVILLE NOT AVBL PINEY ISLAND NOT AVBL WILMINGTON CLEAR 34 31 88 CALM 30.19R $$ NCZ011>013-027>030-043-044-078>080-089-090>093-098-201200- COASTAL PLAIN CITY SKY/WX TMP DP RH WIND PRES REMARKS AHOSKIE CLEAR 31 28 87 CALM 30.17R CLINTON CLEAR 32 31 98 CALM 30.20R ELIZABETHTOWN NOT AVBL GOLDSBORO CLEAR 39 27 62 NW7 30.17R GREENVILLE CLEAR 34 28 80 CALM 30.18R HAVELOCK NOT AVBL KENANSVILLE CLEAR 27 25 93 CALM 30.18R KINSTON CLEAR 30 28 92 S3 30.17S NEW BERN CLEAR 34 29 82 W6 30.19R RICHLANDS CLEAR 27 24 89 CALM 30.18R ROCKY MOUNT CLEAR 34 28 79 W3 30.19R WASHINGTON CLEAR 35 28 73 CALM 30.17R WHITEVILLE CLEAR 34 30 86 CALM 30.19R $$ AMZ130-135-150-152-154-156-158-170-250-252-270-ANZ085-086-088-633-658-670-201200- MARINE OBSERVATIONS STATION/POSITION TIME TEMP WIND PRES WAVE SWELL AIR SEA DIR/SP/G HT/PER HT/PER (UTC) (F) (DEG/KT/KT) (MB) (FT/S) (FT/S) CHESAPEAKE LIGHT NOT AVBL 64 E VA BEACH 1050 51 60 300/ 14/ 19 1019.1 7/ 8 5/ 8 DUCK 1042 43 60 310/ 15/ 18 1019.6 2 E DUCK 1100 61 N/A 4/ 6 OREGON INLET 1042 45 56 320/ 8/ 11 1020.2 13E OREGON INLT 1048 62 N/A 6/ 7 5/ 7 HATTERAS CG 1042 47 59 330/ 18/ 20 1020.1 DIAMOND BUOY 1050 50 66 330/ 17/ 21 1020.2 5/ 4 2/12 CAPE LOOKOUT 1100 330/ 13/ 15 1021.7 BEAUFORT LAB 1042 42 59 320/ 4/ 7 1021.3 30 SE NEW RVR IN 1008 51 68 10/ 14/ 19 1021.0 30 SE NEW RVR IN 1100 68 N/A 4/ 5 27 SE WRIGHTSVLE 1008 51 68 360/ 17/ 27 1020.9 5 SE WRIGHTSVLE 1008 47 64 350/ 12/ 16 1021.2 225 S CAPE HAT 1050 66 76 360/ 19/ 23 1018.0 7/ 8 2/12 41 SE CHARLESTON 1100 57 73 30/ 16/ 19 1021.3 $$

USA.gov is the U.S. government's official web portal to all federal, state and local government web resources and services.